EHI
8 8 10 11 10 9 7 7 8 8 7 4 1 0 0 0 0 0 0 0 0 0 0 0 0 0 0 0 0 0 0 0 0 0 0 0 0 0 0 0 0 0 0
9 9 9 10 10 9 7 7 8 9 9 6 3 1 1 1 0 0 1 1 0 0 0 0 0 0 0 0 0 0 0 0 0 0 0 0 0 0 0 0 0 0 0
10 9 8 9 9 7 6 6 8 10 9 7 5 3 2 1 0 0 2 2 1 1 1 1 1 1 1 1 0 0 0 0 0 0 0 0 0 0 0 0 0 0 0
8 7 8 8 7 5 3 4 6 9 9 8 6 5 3 1 0 0 2 3 3 3 3 4 3 2 2 2 1 0 0 0 0 0 0 0 0 0 0 0 0 0 0
8 8 10 9 6 4 3 3 5 9 10 9 8 7 5 2 0 0 1 3 3 4 5 5 4 3 3 2 1 0 0 0 0 0 0 0 0 0 0 0 0 0 0
12 12 13 12 8 6 5 5 6 8 10 9 8 7 6 4 1 1 2 3 3 4 5 4 3 3 2 1 0 0 0 0 0 0 0 0 0 0 0 0 0 0 0
16 15 15 13 10 8 8 6 6 7 7 6 5 5 5 4 2 2 3 4 3 3 4 3 3 2 1 0 0 0 0 0 0 0 0 0 0 0 0 0 0 0 0
16 16 14 11 10 9 8 6 6 5 5 4 4 3 4 4 3 3 3 4 3 3 3 3 3 1 0 0 0 0 0 0 0 0 0 0 0 0 0 0 0 0 0
16 17 14 9 7 7 6 4 5 5 4 5 5 5 4 3 3 2 3 4 3 2 3 3 2 1 0 0 0 0 0 0 0 0 0 0 0 0 0 0 0 0 0
17 17 15 10 5 4 3 2 3 4 5 6 6 5 3 3 2 1 2 3 3 3 3 2 1 0 0 1 0 0 0 0 0 0 0 0 0 0 0 0 0 0 0
14 15 15 12 7 4 2 1 2 4 5 5 5 3 3 3 2 1 1 1 2 2 2 1 0 0 0 0 0 0 0 0 0 0 0 0 0 0 0 0 0 0 0
9 11 12 11 8 5 3 3 4 4 4 3 3 3 3 3 2 1 1 0 1 1 1 0 0 0 0 0 0 0 0 0 0 0 0 0 0 0 0 0 0 0 0
6 7 9 9 8 7 7 7 6 5 3 2 3 3 3 2 3 3 2 1 0 0 0 0 0 0 0 0 0 0 0 0 0 0 0 0 0 0 0 0 0 0 0
4 5 7 8 7 7 8 8 7 5 4 3 2 2 2 1 2 3 4 3 2 1 1 1 0 0 0 0 0 0 0 0 0 0 0 0 0 0 0 0 0 0 0
2 3 5 7 6 6 7 7 6 4 4 2 1 1 1 0 1 2 4 4 3 2 1 1 0 0 0 0 0 0 0 0 0 0 0 0 0 0 0 0 0 0 0
1 1 3 4 4 4 5 6 5 4 3 1 0 0 0 0 0 1 2 3 3 2 1 1 0 0 0 0 0 0 0 0 0 0 0 0 0 0 0 0 1 0 0
0 0 1 2 3 3 3 4 5 5 3 1 1 0 0 0 0 0 1 1 1 1 0 0 0 0 0 0 0 0 0 0 0 0 0 0 0 0 0 0 0 0 0
0 0 0 1 3 3 3 4 4 5 4 3 2 1 0 0 0 0 0 0 0 0 0 0 0 0 0 0 0 0 0 0 0 0 0 0 0 0 0 0 0 0 0
0 0 0 1 2 3 2 3 3 3 3 2 2 1 0 0 0 0 0 0 0 0 0 0 0 0 0 0 0 0 0 0 0 0 0 0 0 0 0 0 0 0 0
0 0 0 1 2 2 1 2 1 1 1 1 1 1 0 0 0 0 0 0 0 0 0 0 0 0 0 0 0 0 0 0 0 0 0 0 0 0 0 0 0 0 0
0 0 0 0 1 1 0 0 0 0 0 0 0 0 0 0 0 0 0 0 0 0 0 0 0 0 0 0 0 0 0 0 0 0 0 0 0 0 0 0 0 0 0
0 0 0 0 0 0 0 0 0 0 0 0 0 0 0 0 0 0 0 0 0 0 0 0 0 0 0 0 0 0 0 0 0 0 0 0 0 0 0 0 0 0 0
0 0 0 0 0 0 0 0 0 0 0 0 0 0 0 0 0 0 0 0 0 0 0 0 0 0 0 0 0 0 0 0 0 0 0 0 0 0 0 0 0 0 0
0 0 0 0 0 0 0 0 0 0 0 0 0 0 0 0 0 0 0 0 0 0 0 0 0 0 0 0 0 0 0 0 0 0 0 0 0 0 0 0 0 0 0
0 0 0 0 0 0 0 0 0 0 0 0 0 0 0 0 0 0 0 0 0 0 0 0 0 0 0 0 0 0 0 0 0 0 0 0 0 0 0 0 0 0 0
0 0 0 0 0 0 0 0 0 0 0 0 0 0 0 0 0 0 0 0 0 0 0 0 0 0 0 0 0 0 0 0 0 0 0 0 0 0 0 0 0 0 0
Wind_Speed
7 8 9 9 9 10 9 9 9 9 9 9 9 9 8 8 8 8 8 8 8 8 8 8 8 8 8 8 8 8 8 8 8 8 8 8 8 8 8 6 4 8 10
8 9 9 9 10 10 9 9 8 8 8 8 8 8 8 8 8 8 8 8 7 7 7 7 7 7 8 8 8 7 7 7 7 7 5 6 6 7 7 6 5 7 8
8 9 10 9 10 10 9 9 8 8 8 8 8 8 8 7 7 7 8 7 7 7 7 7 7 7 7 7 7 7 6 6 6 4 3 4 7 6 6 6 6 7 7
7 8 9 9 10 10 9 9 8 8 8 8 8 8 7 7 7 7 7 7 6 6 6 6 6 6 6 6 6 6 6 5 4 3 3 3 4 6 5 5 5 5 5
7 8 9 9 9 9 9 9 8 8 8 7 7 7 7 6 6 6 7 6 6 6 5 6 6 6 6 5 5 5 5 4 3 4 3 3 3 5 4 4 4 4 4
7 7 9 8 9 9 8 8 8 8 7 7 6 6 6 6 6 6 6 6 5 5 5 5 5 5 5 4 4 4 4 3 5 3 3 3 3 4 4 3 3 3 3
6 6 8 8 8 8 8 8 7 7 6 6 6 6 6 6 6 5 5 5 5 4 4 4 4 4 4 4 3 4 3 3 3 3 2 3 3 3 4 3 3 3 3
6 6 7 8 7 8 8 7 6 6 5 5 5 5 5 5 5 5 5 5 4 4 4 4 3 3 3 3 3 3 3 4 4 3 3 3 2 3 4 4 4 4 4
5 5 6 6 7 7 7 7 6 6 5 5 5 5 5 4 4 4 4 4 3 3 3 3 3 3 3 3 2 2 2 4 5 3 3 2 3 5 5 5 5 5 5
5 5 5 5 5 5 6 7 6 6 6 5 5 4 4 4 4 3 3 3 2 2 1 2 2 2 2 3 2 2 3 5 6 4 3 2 3 6 6 6 6 7 6
4 4 4 4 4 4 4 5 6 6 5 4 4 4 2 3 3 3 3 3 2 1 1 1 1 1 2 3 3 3 5 4 4 4 3 1 5 7 8 8 7 8 7
3 3 3 4 4 4 3 3 3 3 4 3 2 3 1 1 1 1 4 2 1 1 1 1 1 2 4 3 4 5 4 5 4 4 3 3 6 8 9 9 9 9 9
4 3 4 4 4 4 3 2 2 2 2 2 3 2 1 1 1 1 1 2 2 2 2 2 3 3 3 2 3 4 4 4 3 3 3 4 7 9 9 9 9 10 10
4 3 4 4 4 3 3 2 2 2 2 2 3 2 1 1 1 1 0 0 1 1 1 1 2 3 3 4 4 4 5 4 4 3 3 4 7 9 9 9 9 9 10
4 3 3 4 4 3 3 2 2 2 2 2 2 2 2 1 1 1 0 1 1 1 1 2 2 3 3 4 4 4 5 5 5 5 3 4 5 8 9 10 10 10 10
4 4 3 4 4 4 3 2 2 2 2 2 2 3 3 2 1 1 1 1 1 2 2 2 3 3 3 3 4 4 5 5 5 6 5 4 6 7 8 10 10 10 10
4 4 4 4 4 4 3 3 2 2 2 2 2 3 3 3 2 2 1 1 2 2 2 2 3 3 3 3 4 5 4 5 5 6 6 5 5 6 7 9 9 9 9
3 3 3 3 4 4 3 3 2 2 2 2 2 2 3 3 3 2 2 2 2 2 2 2 2 3 3 3 3 4 4 4 6 6 5 5 4 4 5 6 7 8 9
4 4 4 4 4 4 3 2 2 2 2 2 2 2 2 3 3 2 2 2 2 2 2 2 2 3 3 3 3 4 4 4 4 5 5 5 4 4 4 4 5 6 7
4 4 4 5 4 4 3 2 2 2 2 2 2 2 2 2 3 2 2 3 3 2 2 2 2 2 3 3 4 4 4 4 4 4 4 4 3 4 4 5 4 4 4
5 5 5 5 4 4 3 2 2 2 1 1 1 2 2 2 2 2 2 2 2 2 3 3 3 3 2 3 3 3 3 4 3 3 3 3 3 3 4 4 3 3 3
6 6 5 5 4 3 2 1 1 1 1 1 1 1 2 2 2 2 2 2 3 2 3 3 3 2 2 2 2 3 3 2 2 2 2 2 3 3 3 3 3 4 4
5 6 5 5 4 4 3 2 2 1 1 1 1 0 1 1 2 2 2 2 3 3 2 3 2 3 3 2 2 3 3 3 3 2 2 2 2 3 3 3 3 3 4
5 5 5 5 4 4 4 3 3 2 2 1 0 0 0 1 1 2 2 2 2 2 3 3 2 3 3 3 2 2 3 4 4 3 2 2 3 4 4 3 3 3 4
4 4 4 5 4 4 4 4 3 3 2 1 1 1 1 1 1 2 2 2 2 2 3 3 3 3 3 3 3 3 3 4 5 5 5 4 3 3 4 4 4 3 4
4 4 4 4 5 4 4 4 4 4 3 2 2 2 1 1 1 1 2 2 2 2 3 3 3 3 3 3 3 3 3 3 3 4 6 6 5 4 5 4 4 3 3
Wind_Direction
149 147 141 143 140 133 129 126 125 124 126 126 125 124 125 124 123 124 124 121 117 116 112 110 111 111 106 103 101 99 96 94 93 92 88 87 91 95 91 88 104 96 87
147 149 142 145 141 137 132 128 123 124 124 123 124 126 125 126 126 126 128 124 121 119 117 113 110 113 111 107 103 101 99 94 94 94 100 109 97 96 96 84 55 85 93
146 147 149 145 140 137 134 130 127 125 126 126 124 124 125 124 127 126 126 121 119 118 118 116 114 112 115 113 108 105 106 103 96 108 181 135 114 105 104 99 92 95 98
145 147 145 138 138 138 138 136 133 131 128 125 123 123 123 123 121 125 125 121 118 116 115 117 117 117 117 119 118 114 110 113 115 195 172 117 118 112 110 105 105 104 106
146 145 133 134 135 135 141 137 134 133 129 125 123 123 125 125 120 118 123 119 115 112 114 122 123 122 124 124 130 131 125 121 156 206 129 124 118 118 124 120 117 115 115
143 141 133 133 132 133 135 135 134 133 130 127 125 124 123 122 122 118 118 119 119 118 119 127 134 132 129 131 139 147 147 152 205 163 153 146 130 126 139 143 147 139 136
136 135 134 130 131 133 131 128 129 131 127 126 126 124 123 119 114 114 113 119 126 131 133 135 141 144 144 144 149 159 161 200 227 173 170 163 137 152 170 170 177 175 171
125 128 131 122 124 131 126 124 120 117 116 119 125 124 120 116 115 114 110 115 121 127 134 142 144 153 158 165 168 168 181 222 219 205 194 183 146 202 198 194 198 199 196
119 124 130 130 125 121 116 113 111 108 109 103 109 112 108 105 108 115 112 119 124 129 129 140 155 163 171 175 180 182 189 234 238 218 213 205 171 221 217 212 210 211 202
115 118 126 129 131 132 130 112 108 103 98 93 86 94 105 118 124 122 132 116 119 121 128 136 150 178 193 193 188 192 212 233 233 223 222 194 202 229 229 223 220 216 213
98 104 119 120 118 121 127 121 119 111 99 104 99 87 143 157 150 149 106 88 91 99 111 136 163 181 221 197 194 208 224 239 237 238 233 181 227 235 237 235 230 224 224
118 117 117 115 108 107 103 116 116 117 114 115 108 108 137 137 124 125 112 96 94 121 188 191 231 216 234 217 191 207 234 242 246 237 224 201 238 242 243 243 237 233 231
138 121 116 110 103 101 95 96 92 94 101 107 100 92 84 117 131 140 146 152 174 202 211 202 220 230 241 241 239 235 249 253 249 245 223 206 241 247 248 246 245 239 234
139 124 122 119 114 98 90 83 88 85 84 80 78 73 68 70 113 102 127 174 236 246 264 255 259 253 254 251 249 252 253 252 253 253 237 215 247 251 252 250 252 247 240
148 137 132 127 122 115 103 83 78 72 64 65 65 62 57 48 66 70 22 355 310 304 283 277 269 272 267 263 257 256 256 258 258 255 241 208 243 256 256 255 255 252 248
156 147 137 134 127 120 112 102 82 75 75 61 58 56 49 31 18 16 11 354 336 317 304 284 287 277 271 269 266 263 262 261 261 258 259 229 216 244 257 259 259 258 257
164 157 148 144 133 126 119 107 90 81 74 67 59 54 53 40 18 8 3 355 345 329 309 298 296 286 282 277 271 269 265 262 260 260 258 258 238 220 236 253 259 259 260
160 160 151 144 139 134 122 114 103 86 79 76 67 58 50 44 22 6 3 356 345 335 322 307 304 294 285 284 284 282 274 267 264 263 258 255 256 254 229 234 252 261 263
162 160 152 149 144 130 119 115 108 105 89 78 72 59 44 39 24 5 357 350 340 336 333 321 316 306 296 291 285 280 276 269 265 261 259 260 258 262 263 235 230 250 265
161 161 160 151 140 134 132 131 128 115 94 80 71 58 40 28 19 3 351 350 343 329 331 328 318 312 300 300 291 280 278 275 269 263 263 262 267 268 269 270 253 236 241
164 166 167 154 149 151 153 158 155 140 118 102 72 57 41 22 9 356 349 345 338 332 332 331 325 315 322 316 291 283 265 254 257 262 266 271 277 280 280 281 277 274 256
172 173 169 164 163 164 161 148 134 122 119 95 87 62 24 6 358 346 341 335 334 328 329 334 332 313 318 331 307 291 282 243 224 272 276 281 286 289 289 296 297 289 287
181 182 176 171 168 168 160 142 140 153 170 172 171 105 24 358 348 334 326 325 329 322 318 321 320 312 305 306 303 294 290 295 316 259 270 277 297 304 303 308 303 297 293
185 177 177 170 168 172 174 182 186 203 212 210 214 245 315 328 328 322 314 317 317 314 307 304 303 295 285 287 289 279 286 299 290 291 256 274 298 298 302 307 305 305 302
178 174 173 168 171 176 188 197 205 217 226 210 211 236 265 285 310 310 303 301 297 296 300 300 293 284 283 281 281 280 273 271 268 273 283 291 294 296 299 303 299 298 304
174 173 174 177 182 185 195 203 213 218 221 224 235 245 250 256 265 277 283 280 282 287 290 289 282 274 274 272 268 266 266 268 269 269 275 286 292 296 296 295 290 291 302